Location: Strawberry
(45.6646°N, 111.9596°W)
Time: 01:33:49
(UTC+00:00)

Vanguard 1 Rocket - Pass Details

Date: 02 October 2022
Orbit: 650 x 4225 km, 34.3° (Epoch: 05 December)

Event Time Altitude Azimuth Distance (km) Brightness Sun altitude
Rises 06:21:27 0° 263° (W) 6,813 12.0 -46.2°
Reaches altitude 10° 06:27:03 10° 258° (WSW) 5,189 11.2 -46.5°
Enters shadow 06:30:59 19° 251° (WSW) 4,010 10.5 -46.7°
